{"data":{"norad_id":58889,"epoch":"2026-05-24T21:26:27.644064Z","epoch_age_seconds":74344,"freshness":"FRESH","line1":"1 58889U 24020P   26144.89337551 -.00003925  00000+0 -10508-3 0  9991","line2":"2 58889  53.1624 328.0792 0001373  84.1418 275.9741 15.34404982129740","mean_motion":15.34404982,"eccentricity":0.0001373,"inclination_deg":53.1624,"raan_deg":328.0792,"arg_perigee_deg":84.1418,"mean_anomaly_deg":275.9741,"bstar":-0.00010508,"rev_number":12974,"period_min":93.84745337069,"perigee_km":461.74918736135,"apogee_km":463.62767802517,"semimajor_km":6840.8254326933,"source":"CELESTRAK","updated_at":"2026-05-25T13:38:18.786162Z"}}